Time,TemperatureF,DewpointF,PressureIn,WindDirection,WindDirectionDegrees,WindSpeedMPH,WindSpeedGustMPH,Humidity,HourlyPrecipIn,Conditions,Clouds,dailyrainin,SoftwareType,DateUTC
2013-04-24 00:00:00,37.3,27.3,29.99,NNE,17,4.0,4.0,67,0.00,,,0.00,Wunderground v.1.15,2013-04-24 05:00:00,
2013-04-24 00:05:00,37.3,27.3,29.99,NNW,346,4.0,7.0,67,0.00,,,0.00,Wunderground v.1.15,2013-04-24 05:05:00,
2013-04-24 00:10:00,37.3,27.3,29.99,North,5,5.0,8.0,67,0.00,,,0.00,Wunderground v.1.15,2013-04-24 05:10:00,
2013-04-24 00:15:00,37.3,27.3,29.99,North,5,5.0,8.0,67,0.00,,,0.00,Wunderground v.1.15,2013-04-24 05:15:00,
2013-04-24 00:20:00,37.2,27.2,29.99,NNW,342,5.0,8.0,67,0.00,,,0.00,Wunderground v.1.15,2013-04-24 05:20:00,
2013-04-24 00:25:00,37.1,27.5,29.99,NNW,339,5.0,14.0,68,0.00,,,0.00,Wunderground v.1.15,2013-04-24 05:25:00,
2013-04-24 00:30:00,37.0,27.8,29.99,North,360,5.0,5.0,69,0.00,,,0.00,Wunderground v.1.15,2013-04-24 05:30:00,
2013-04-24 00:35:00,36.9,27.3,29.99,NNW,348,4.0,8.0,68,0.00,,,0.00,Wunderground v.1.15,2013-04-24 05:35:00,
2013-04-24 00:40:00,36.9,27.7,30.00,WNW,284,3.0,4.0,69,0.00,,,0.00,Wunderground v.1.15,2013-04-24 05:40:00,
2013-04-24 00:45:00,36.8,27.6,30.00,North,10,3.0,5.0,69,0.00,,,0.00,Wunderground v.1.15,2013-04-24 05:45:00,
2013-04-24 00:50:00,36.7,27.5,30.00,North,355,3.0,3.0,69,0.00,,,0.00,Wunderground v.1.15,2013-04-24 05:50:00,
2013-04-24 00:55:00,36.6,27.4,30.00,North,349,2.0,4.0,69,0.00,,,0.00,Wunderground v.1.15,2013-04-24 05:55:00,
2013-04-24 01:00:00,36.6,27.4,30.00,NNE,29,2.0,4.0,69,0.00,,,0.00,Wunderground v.1.15,2013-04-24 06:00:00,
2013-04-24 01:05:00,36.5,27.3,30.00,North,5,4.0,4.0,69,0.00,,,0.00,Wunderground v.1.15,2013-04-24 06:05:00,
2013-04-24 01:10:00,36.4,27.2,30.00,North,360,4.0,6.0,69,0.00,,,0.00,Wunderground v.1.15,2013-04-24 06:10:00,
2013-04-24 01:15:00,36.4,27.2,30.00,NNW,344,4.0,7.0,69,0.00,,,0.00,Wunderground v.1.15,2013-04-24 06:15:00,
2013-04-24 01:20:00,36.2,27.0,30.00,NNE,28,4.0,6.0,69,0.00,,,0.00,Wunderground v.1.15,2013-04-24 06:20:00,
2013-04-24 01:25:00,36.2,27.0,30.00,NNW,339,4.0,6.0,69,0.00,,,0.00,Wunderground v.1.15,2013-04-24 06:25:00,
2013-04-24 01:30:00,36.1,26.9,30.00,North,9,4.0,4.0,69,0.00,,,0.00,Wunderground v.1.15,2013-04-24 06:30:00,
2013-04-24 01:35:00,36.0,26.8,30.00,NNW,348,4.0,4.0,69,0.00,,,0.00,Wunderground v.1.15,2013-04-24 06:35:00,
2013-04-24 01:40:00,35.9,26.7,30.00,North,351,2.0,5.0,69,0.00,,,0.00,Wunderground v.1.15,2013-04-24 06:40:00,
2013-04-24 01:45:00,35.9,26.7,30.00,NNW,345,2.0,5.0,69,0.00,,,0.00,Wunderground v.1.15,2013-04-24 06:45:00,
2013-04-24 01:50:00,35.7,26.5,29.99,NNE,12,3.0,3.0,69,0.00,,,0.00,Wunderground v.1.15,2013-04-24 06:50:00,
2013-04-24 01:55:00,35.6,26.4,30.00,NNE,14,3.0,3.0,69,0.00,,,0.00,Wunderground v.1.15,2013-04-24 06:55:00,
2013-04-24 02:00:00,35.6,26.4,30.00,North,350,3.0,3.0,69,0.00,,,0.00,Wunderground v.1.15,2013-04-24 07:00:00,
2013-04-24 02:05:00,35.5,26.3,30.00,North,11,3.0,4.0,69,0.00,,,0.00,Wunderground v.1.15,2013-04-24 07:05:00,
2013-04-24 02:15:00,35.3,26.5,29.99,NNE,23,4.0,4.0,70,0.00,,,0.00,Wunderground v.1.15,2013-04-24 07:15:00,
2013-04-24 02:20:00,35.2,26.4,30.00,North,5,4.0,4.0,70,0.00,,,0.00,Wunderground v.1.15,2013-04-24 07:20:00,
2013-04-24 02:25:00,35.2,26.4,30.00,NNW,343,3.0,4.0,70,0.00,,,0.00,Wunderground v.1.15,2013-04-24 07:25:00,
2013-04-24 02:30:00,35.0,26.2,30.00,North,355,2.0,2.0,70,0.00,,,0.00,Wunderground v.1.15,2013-04-24 07:30:00,
2013-04-24 02:35:00,34.9,26.4,29.99,North,355,2.0,2.0,71,0.00,,,0.00,Wunderground v.1.15,2013-04-24 07:35:00,
2013-04-24 02:40:00,34.8,26.4,29.98,North,5,1.0,6.0,71,0.00,,,0.00,Wunderground v.1.15,2013-04-24 07:40:00,
2013-04-24 02:45:00,34.6,26.5,29.98,NNW,344,2.0,6.0,72,0.00,,,0.00,Wunderground v.1.15,2013-04-24 07:45:00,
2013-04-24 02:50:00,34.4,26.3,29.98,North,360,2.0,2.0,72,0.00,,,0.00,Wunderground v.1.15,2013-04-24 07:50:00,
2013-04-24 02:55:00,34.4,26.3,29.97,North,9,1.0,2.0,72,0.00,,,0.00,Wunderground v.1.15,2013-04-24 07:55:00,
2013-04-24 03:00:00,34.4,26.3,29.99,North,355,2.0,2.0,72,0.00,,,0.00,Wunderground v.1.15,2013-04-24 08:00:00,
2013-04-24 04:30:00,33.7,26.0,29.99,North,360,2.0,2.0,73,0.00,,,0.00,Wunderground v.1.15,2013-04-24 09:30:00,
2013-04-24 04:35:00,33.7,25.6,29.99,NNW,334,2.0,2.0,72,0.00,,,0.00,Wunderground v.1.15,2013-04-24 09:35:00,
2013-04-24 04:40:00,33.6,25.5,30.00,NNE,23,1.0,1.0,72,0.00,,,0.00,Wunderground v.1.15,2013-04-24 09:40:00,
2013-04-24 04:45:00,33.6,25.9,29.99,WNW,294,0.0,1.0,73,0.00,,,0.00,Wunderground v.1.15,2013-04-24 09:45:00,
2013-04-24 04:50:00,33.6,25.5,30.00,North,5,0.0,1.0,72,0.00,,,0.00,Wunderground v.1.15,2013-04-24 09:50:00,
2013-04-24 04:55:00,33.5,25.4,30.00,NNW,333,0.0,1.0,72,0.00,,,0.00,Wunderground v.1.15,2013-04-24 09:55:00,
2013-04-24 05:00:00,33.4,25.7,30.01,NW,323,0.0,4.0,73,0.00,,,0.00,Wunderground v.1.15,2013-04-24 10:00:00,
2013-04-24 05:05:00,33.4,26.0,30.00,NNW,342,0.0,4.0,74,0.00,,,0.00,Wunderground v.1.15,2013-04-24 10:05:00,
2013-04-24 05:10:00,33.3,25.6,30.00,NNW,344,1.0,1.0,73,0.00,,,0.00,Wunderground v.1.15,2013-04-24 10:10:00,
2013-04-24 05:15:00,33.3,25.9,30.00,NNW,344,1.0,1.0,74,0.00,,,0.00,Wunderground v.1.15,2013-04-24 10:15:00,
2013-04-24 05:20:00,33.2,25.8,30.00,NNW,344,1.0,1.0,74,0.00,,,0.00,Wunderground v.1.15,2013-04-24 10:20:00,
2013-04-24 05:25:00,33.1,25.7,30.01,NNW,344,0.0,1.0,74,0.00,,,0.00,Wunderground v.1.15,2013-04-24 10:25:00,
2013-04-24 05:30:00,33.0,25.9,30.01,NNW,344,0.0,0.0,75,0.00,,,0.00,Wunderground v.1.15,2013-04-24 10:30:00,
2013-04-24 05:40:00,32.8,25.7,30.01,NNW,344,0.0,2.0,75,0.00,,,0.00,Wunderground v.1.15,2013-04-24 10:40:00,
2013-04-24 05:45:00,32.8,26.1,30.00,NNW,344,0.0,2.0,76,0.00,,,0.00,Wunderground v.1.15,2013-04-24 10:45:00,
2013-04-24 05:50:00,32.6,25.9,30.00,NNW,344,0.0,0.0,76,0.00,,,0.00,Wunderground v.1.15,2013-04-24 10:50:00,
2013-04-24 05:55:00,32.5,25.8,30.00,NNW,346,0.0,0.0,76,0.00,,,0.00,Wunderground v.1.15,2013-04-24 10:55:00,
2013-04-24 06:00:00,32.5,25.8,30.00,NNW,345,1.0,1.0,76,0.00,,,0.00,Wunderground v.1.15,2013-04-24 11:00:00,
2013-04-24 06:05:00,32.5,25.8,30.01,NNE,13,1.0,1.0,76,0.00,,,0.00,Wunderground v.1.15,2013-04-24 11:05:00,
2013-04-24 06:10:00,32.4,25.7,30.01,North,5,1.0,1.0,76,0.00,,,0.00,Wunderground v.1.15,2013-04-24 11:10:00,
2013-04-24 06:15:00,32.4,26.0,30.01,NW,325,0.0,1.0,77,0.00,,,0.00,Wunderground v.1.15,2013-04-24 11:15:00,
2013-04-24 06:20:00,32.4,26.0,30.01,NW,325,0.0,0.0,77,0.00,,,0.00,Wunderground v.1.15,2013-04-24 11:20:00,
2013-04-24 06:25:00,32.4,26.0,30.01,NW,321,0.0,0.0,77,0.00,,,0.00,Wunderground v.1.15,2013-04-24 11:25:00,
2013-04-24 06:35:00,32.4,25.7,30.02,North,351,0.0,2.0,76,0.00,,,0.00,Wunderground v.1.15,2013-04-24 11:35:00,
2013-04-24 06:40:00,32.5,25.8,30.02,North,351,0.0,0.0,76,0.00,,,0.00,Wunderground v.1.15,2013-04-24 11:40:00,
2013-04-24 06:45:00,32.5,25.8,30.02,North,350,0.0,0.0,76,0.00,,,0.00,Wunderground v.1.15,2013-04-24 11:45:00,
2013-04-24 06:55:00,32.7,26.0,30.03,North,350,0.0,0.0,76,0.00,,,0.00,Wunderground v.1.15,2013-04-24 11:55:00,
2013-04-24 07:00:00,32.8,26.1,30.03,North,350,1.0,1.0,76,0.00,,,0.00,Wunderground v.1.15,2013-04-24 12:00:00,
2013-04-24 07:05:00,33.0,26.3,30.03,North,350,0.0,1.0,76,0.00,,,0.00,Wunderground v.1.15,2013-04-24 12:05:00,
2013-04-24 07:10:00,33.1,26.0,30.03,North,350,0.0,1.0,75,0.00,,,0.00,Wunderground v.1.15,2013-04-24 12:10:00,
2013-04-24 07:15:00,33.2,26.1,30.03,North,350,0.0,1.0,75,0.00,,,0.00,Wunderground v.1.15,2013-04-24 12:15:00,
2013-04-24 07:20:00,33.3,26.2,30.04,North,355,1.0,1.0,75,0.00,,,0.00,Wunderground v.1.15,2013-04-24 12:20:00,
2013-04-24 07:25:00,33.4,26.6,30.04,North,355,0.0,1.0,76,0.00,,,0.00,Wunderground v.1.15,2013-04-24 12:25:00,
2013-04-24 07:35:00,33.6,26.5,30.04,North,355,0.0,0.0,75,0.00,,,0.00,Wunderground v.1.15,2013-04-24 12:35:00,
2013-04-24 07:40:00,33.7,26.6,30.04,NNW,328,0.0,0.0,75,0.00,,,0.00,Wunderground v.1.15,2013-04-24 12:40:00,
2013-04-24 07:45:00,33.7,26.6,30.04,WNW,299,1.0,1.0,75,0.00,,,0.00,Wunderground v.1.15,2013-04-24 12:45:00,
2013-04-24 07:50:00,33.6,26.5,30.05,WNW,301,1.0,1.0,75,0.00,,,0.00,Wunderground v.1.15,2013-04-24 12:50:00,
2013-04-24 08:00:00,33.5,26.7,30.05,NNW,345,0.0,1.0,76,0.00,,,0.00,Wunderground v.1.15,2013-04-24 13:00:00,
2013-04-24 08:05:00,33.7,26.9,30.05,North,355,1.0,5.0,76,0.00,,,0.00,Wunderground v.1.15,2013-04-24 13:05:00,
2013-04-24 08:10:00,34.0,26.6,30.04,North,355,2.0,3.0,74,0.00,,,0.00,Wunderground v.1.15,2013-04-24 13:10:00,
2013-04-24 08:15:00,34.4,26.6,30.04,WNW,295,2.0,3.0,73,0.00,,,0.00,Wunderground v.1.15,2013-04-24 13:15:00,
2013-04-24 08:20:00,34.6,26.5,30.04,WNW,300,3.0,3.0,72,0.00,,,0.00,Wunderground v.1.15,2013-04-24 13:20:00,
2013-04-24 08:25:00,35.0,26.2,30.04,NNW,332,5.0,7.0,70,0.00,,,0.00,Wunderground v.1.15,2013-04-24 13:25:00,
2013-04-24 08:30:00,35.4,26.2,30.04,North,5,4.0,6.0,69,0.00,,,0.00,Wunderground v.1.15,2013-04-24 13:30:00,
2013-04-24 08:35:00,35.9,26.4,30.04,NW,318,3.0,6.0,68,0.00,,,0.00,Wunderground v.1.15,2013-04-24 13:35:00,
2013-04-24 08:40:00,36.3,26.0,30.04,North,355,3.0,5.0,66,0.00,,,0.00,Wunderground v.1.15,2013-04-24 13:40:00,
2013-04-24 08:45:00,36.6,25.9,30.04,WNW,297,4.0,6.0,65,0.00,,,0.00,Wunderground v.1.15,2013-04-24 13:45:00,
2013-04-24 08:49:00,36.9,25.9,30.04,NNW,334,4.0,4.0,64,0.00,,,0.00,Wunderground v.1.15,2013-04-24 13:49:00,
2013-04-24 08:55:00,37.2,26.9,30.04,NNW,340,2.0,6.0,66,0.00,,,0.00,Wunderground v.1.15,2013-04-24 13:55:00,
2013-04-24 09:00:00,37.7,26.2,30.04,NW,304,2.0,2.0,63,0.00,,,0.00,Wunderground v.1.15,2013-04-24 14:00:00,
2013-04-24 09:05:00,38.1,26.2,30.04,NNW,328,2.0,6.0,62,0.00,,,0.00,Wunderground v.1.15,2013-04-24 14:05:00,
2013-04-24 09:10:00,38.5,26.6,30.04,North,11,2.0,2.0,62,0.00,,,0.00,Wunderground v.1.15,2013-04-24 14:10:00,
2013-04-24 09:15:00,38.9,26.6,30.04,North,355,2.0,6.0,61,0.00,,,0.00,Wunderground v.1.15,2013-04-24 14:15:00,
2013-04-24 09:20:00,39.4,27.5,30.04,North,360,3.0,6.0,62,0.00,,,0.00,Wunderground v.1.15,2013-04-24 14:20:00,
2013-04-24 09:25:00,39.9,27.1,30.04,NW,326,2.0,6.0,60,0.00,,,0.00,Wunderground v.1.15,2013-04-24 14:25:00,
2013-04-24 09:30:00,40.2,26.6,30.04,NNW,341,2.0,7.0,58,0.00,,,0.00,Wunderground v.1.15,2013-04-24 14:30:00,
2013-04-24 09:35:00,40.6,27.4,30.04,NNW,346,3.0,7.0,59,0.00,,,0.00,Wunderground v.1.15,2013-04-24 14:35:00,
2013-04-24 09:40:00,41.1,27.0,30.04,North,355,4.0,8.0,57,0.00,,,0.00,Wunderground v.1.15,2013-04-24 14:40:00,
2013-04-24 09:45:00,41.6,27.1,30.04,WNW,296,3.0,8.0,56,0.00,,,0.00,Wunderground v.1.15,2013-04-24 14:45:00,
2013-04-24 09:55:00,42.5,27.0,30.05,NNW,342,3.0,3.0,54,0.00,,,0.00,Wunderground v.1.15,2013-04-24 14:55:00,
2013-04-24 10:00:00,43.1,26.7,30.04,North,355,3.0,4.0,52,0.00,,,0.00,Wunderground v.1.15,2013-04-24 15:00:00,
2013-04-24 10:05:00,43.5,27.9,30.04,NNW,336,3.0,4.0,54,0.00,,,0.00,Wunderground v.1.15,2013-04-24 15:05:00,
2013-04-24 10:10:00,44.2,27.2,30.04,NNW,342,3.0,5.0,51,0.00,,,0.00,Wunderground v.1.15,2013-04-24 15:10:00,
2013-04-24 10:15:00,44.5,26.5,30.04,NNE,32,4.0,5.0,49,0.00,,,0.00,Wunderground v.1.15,2013-04-24 15:15:00,
2013-04-24 10:20:00,45.0,26.0,30.05,North,10,4.0,4.0,47,0.00,,,0.00,Wunderground v.1.15,2013-04-24 15:20:00,
2013-04-24 10:25:00,45.0,24.4,30.04,NW,305,4.0,4.0,44,0.00,,,0.00,Wunderground v.1.15,2013-04-24 15:25:00,
2013-04-24 10:30:00,45.0,26.0,30.04,North,350,3.0,3.0,47,0.00,,,0.00,Wunderground v.1.15,2013-04-24 15:30:00,
2013-04-24 10:35:00,45.1,23.3,30.05,North,350,5.0,5.0,42,0.00,,,0.00,Wunderground v.1.15,2013-04-24 15:35:00,
2013-04-24 10:40:00,45.3,25.2,30.05,North,355,5.0,5.0,45,0.00,,,0.00,Wunderground v.1.15,2013-04-24 15:40:00,
2013-04-24 10:45:00,45.9,25.2,30.05,North,350,2.0,5.0,44,0.00,,,0.00,Wunderground v.1.15,2013-04-24 15:45:00,
2013-04-24 10:50:00,46.5,25.7,30.04,NNW,338,1.0,1.0,44,0.00,,,0.00,Wunderground v.1.15,2013-04-24 15:50:00,
2013-04-24 10:55:00,46.9,26.6,30.04,WNW,290,1.0,4.0,45,0.00,,,0.00,Wunderground v.1.15,2013-04-24 15:55:00,
2013-04-24 11:00:00,46.9,25.0,30.04,North,5,3.0,6.0,42,0.00,,,0.00,Wunderground v.1.15,2013-04-24 16:00:00,
2013-04-24 11:05:00,46.9,26.6,30.04,NNW,340,4.0,6.0,45,0.00,,,0.00,Wunderground v.1.15,2013-04-24 16:05:00,
2013-04-24 11:10:00,47.2,25.8,30.04,WNW,296,2.0,2.0,43,0.00,,,0.00,Wunderground v.1.15,2013-04-24 16:10:00,
2013-04-24 11:15:00,47.7,25.7,30.03,NNW,348,1.0,9.0,42,0.00,,,0.00,Wunderground v.1.15,2013-04-24 16:15:00,
2013-04-24 11:20:00,48.1,25.5,30.04,NW,319,2.0,2.0,41,0.00,,,0.00,Wunderground v.1.15,2013-04-24 16:20:00,
2013-04-24 11:25:00,48.5,26.4,30.03,NW,320,3.0,3.0,42,0.00,,,0.00,Wunderground v.1.15,2013-04-24 16:25:00,
2013-04-24 11:30:00,48.5,26.4,30.04,NNW,336,3.0,5.0,42,0.00,,,0.00,Wunderground v.1.15,2013-04-24 16:30:00,
2013-04-24 11:35:00,48.4,27.5,30.03,NNW,333,4.0,5.0,44,0.00,,,0.00,Wunderground v.1.15,2013-04-24 16:35:00,
2013-04-24 11:40:00,48.4,25.8,30.03,NNW,346,4.0,4.0,41,0.00,,,0.00,Wunderground v.1.15,2013-04-24 16:40:00,
2013-04-24 11:45:00,48.2,27.3,30.03,West,271,3.0,10.0,44,0.00,,,0.00,Wunderground v.1.15,2013-04-24 16:45:00,
2013-04-24 11:50:00,48.4,25.8,30.03,NW,310,2.0,2.0,41,0.00,,,0.00,Wunderground v.1.15,2013-04-24 16:50:00,
2013-04-24 11:55:00,48.6,26.5,30.03,NW,309,3.0,5.0,42,0.00,,,0.00,Wunderground v.1.15,2013-04-24 16:55:00,
2013-04-24 12:00:00,49.0,26.9,30.03,NNW,336,3.0,3.0,42,0.00,,,0.00,Wunderground v.1.15,2013-04-24 17:00:00,
2013-04-24 12:05:00,48.7,26.0,30.02,West,271,3.0,5.0,41,0.00,,,0.00,Wunderground v.1.15,2013-04-24 17:05:00,
2013-04-24 12:10:00,48.1,26.1,30.02,NNW,331,3.0,3.0,42,0.00,,,0.00,Wunderground v.1.15,2013-04-24 17:10:00,
2013-04-24 12:15:00,48.4,27.5,30.02,West,261,3.0,3.0,44,0.00,,,0.00,Wunderground v.1.15,2013-04-24 17:15:00,
2013-04-24 12:20:00,48.5,28.1,30.02,NW,320,2.0,2.0,45,0.00,,,0.00,Wunderground v.1.15,2013-04-24 17:20:00,
2013-04-24 12:25:00,49.1,27.0,30.02,NW,313,2.0,2.0,42,0.00,,,0.00,Wunderground v.1.15,2013-04-24 17:25:00,
2013-04-24 12:30:00,49.8,27.6,30.02,NNW,331,2.0,5.0,42,0.00,,,0.00,Wunderground v.1.15,2013-04-24 17:30:00,
2013-04-24 12:35:00,50.2,28.5,30.01,North,355,2.0,5.0,43,0.00,,,0.00,Wunderground v.1.15,2013-04-24 17:35:00,
2013-04-24 12:40:00,50.5,28.2,30.01,North,5,2.0,2.0,42,0.00,,,0.00,Wunderground v.1.15,2013-04-24 17:40:00,
2013-04-24 12:45:00,50.5,25.8,30.01,WNW,299,3.0,6.0,38,0.00,,,0.00,Wunderground v.1.15,2013-04-24 17:45:00,
2013-04-24 12:50:00,50.8,27.9,30.02,NNW,342,2.0,11.0,41,0.00,,,0.00,Wunderground v.1.15,2013-04-24 17:50:00,
2013-04-24 12:55:00,50.9,26.2,30.01,WSW,247,2.0,11.0,38,0.00,,,0.00,Wunderground v.1.15,2013-04-24 17:55:00,
2013-04-24 13:00:00,51.2,27.1,30.01,West,269,3.0,3.0,39,0.00,,,0.00,Wunderground v.1.15,2013-04-24 18:00:00,
2013-04-24 13:05:00,51.5,26.1,30.01,North,360,2.0,11.0,37,0.00,,,0.00,Wunderground v.1.15,2013-04-24 18:05:00,
2013-04-24 13:10:00,51.7,27.5,30.01,West,275,3.0,6.0,39,0.00,,,0.00,Wunderground v.1.15,2013-04-24 18:10:00,
2013-04-24 13:15:00,51.7,26.9,30.01,North,355,3.0,6.0,38,0.00,,,0.00,Wunderground v.1.15,2013-04-24 18:15:00,
2013-04-24 13:20:00,51.6,27.4,30.01,NW,304,3.0,6.0,39,0.00,,,0.00,Wunderground v.1.15,2013-04-24 18:20:00,
2013-04-24 13:25:00,52.0,25.8,30.01,WNW,284,4.0,10.0,36,0.00,,,0.00,Wunderground v.1.15,2013-04-24 18:25:00,
2013-04-24 13:30:00,51.9,25.8,30.01,NW,310,5.0,5.0,36,0.00,,,0.00,Wunderground v.1.15,2013-04-24 18:30:00,
2013-04-24 13:35:00,51.7,24.2,30.01,WNW,297,4.0,5.0,34,0.00,,,0.00,Wunderground v.1.15,2013-04-24 18:35:00,
2013-04-24 13:40:00,51.5,26.7,30.01,WSW,256,2.0,11.0,38,0.00,,,0.00,Wunderground v.1.15,2013-04-24 18:40:00,
2013-04-24 13:45:00,52.0,25.8,30.02,NW,315,3.0,11.0,36,0.00,,,0.00,Wunderground v.1.15,2013-04-24 18:45:00,
2013-04-24 13:50:00,52.1,25.3,30.02,NW,325,5.0,5.0,35,0.00,,,0.00,Wunderground v.1.15,2013-04-24 18:50:00,
2013-04-24 13:55:00,52.2,25.3,30.01,West,271,4.0,5.0,35,0.00,,,0.00,Wunderground v.1.15,2013-04-24 18:55:00,
2013-04-24 14:00:00,52.5,25.6,30.01,NNW,336,3.0,3.0,35,0.00,,,0.00,Wunderground v.1.15,2013-04-24 19:00:00,
2013-04-24 14:10:00,52.6,25.7,30.01,NW,320,4.0,4.0,35,0.00,,,0.00,Wunderground v.1.15,2013-04-24 19:10:00,
2013-04-24 14:15:00,52.7,25.1,30.01,North,355,4.0,8.0,34,0.00,,,0.00,Wunderground v.1.15,2013-04-24 19:15:00,
2013-04-24 14:20:00,53.0,26.0,30.01,NW,309,4.0,4.0,35,0.00,,,0.00,Wunderground v.1.15,2013-04-24 19:20:00,
2013-04-24 14:25:00,53.2,25.5,30.01,North,355,3.0,4.0,34,0.00,,,0.00,Wunderground v.1.15,2013-04-24 19:25:00,
2013-04-24 14:30:00,53.4,25.7,30.01,North,355,4.0,14.0,34,0.00,,,0.00,Wunderground v.1.15,2013-04-24 19:30:00,
2013-04-24 14:35:00,53.5,25.8,30.01,North,349,5.0,14.0,34,0.00,,,0.00,Wunderground v.1.15,2013-04-24 19:35:00,
2013-04-24 14:40:00,54.0,25.5,30.01,North,351,3.0,7.0,33,0.00,,,0.00,Wunderground v.1.15,2013-04-24 19:40:00,
2013-04-24 14:45:00,54.1,26.3,30.01,NNW,335,4.0,7.0,34,0.00,,,0.00,Wunderground v.1.15,2013-04-24 19:45:00,
2013-04-24 14:50:00,54.1,24.1,30.01,West,267,4.0,4.0,31,0.00,,,0.00,Wunderground v.1.15,2013-04-24 19:50:00,
2013-04-24 14:55:00,53.6,24.4,30.01,West,277,3.0,7.0,32,0.00,,,0.00,Wunderground v.1.15,2013-04-24 19:55:00,
2013-04-24 15:00:00,53.5,25.8,30.01,NNW,344,3.0,3.0,34,0.00,,,0.00,Wunderground v.1.15,2013-04-24 20:00:00,
2013-04-24 15:05:00,53.7,25.2,30.01,NW,319,4.0,4.0,33,0.00,,,0.00,Wunderground v.1.15,2013-04-24 20:05:00,
2013-04-24 15:10:00,53.9,26.1,30.00,NW,325,4.0,5.0,34,0.00,,,0.00,Wunderground v.1.15,2013-04-24 20:10:00,
2013-04-24 15:15:00,54.1,28.4,30.00,NW,321,4.0,5.0,37,0.00,,,0.00,Wunderground v.1.15,2013-04-24 20:15:00,
2013-04-24 15:20:00,54.4,24.4,30.01,WNW,290,5.0,5.0,31,0.00,,,0.00,Wunderground v.1.15,2013-04-24 20:20:00,
2013-04-24 15:25:00,54.4,27.3,30.00,NNW,332,4.0,6.0,35,0.00,,,0.00,Wunderground v.1.15,2013-04-24 20:25:00,
2013-04-24 15:30:00,54.6,25.3,30.00,NW,309,3.0,3.0,32,0.00,,,0.00,Wunderground v.1.15,2013-04-24 20:30:00,
2013-04-24 15:34:00,54.8,26.2,30.01,NW,313,4.0,4.0,33,0.00,,,0.00,Wunderground v.1.15,2013-04-24 20:34:00,
2013-04-24 15:40:00,54.8,26.2,30.00,West,275,3.0,4.0,33,0.00,,,0.00,Wunderground v.1.15,2013-04-24 20:40:00,
2013-04-24 15:45:00,54.9,27.7,30.00,WNW,295,3.0,10.0,35,0.00,,,0.00,Wunderground v.1.15,2013-04-24 20:45:00,
2013-04-24 15:50:00,54.7,26.1,30.00,North,9,4.0,4.0,33,0.00,,,0.00,Wunderground v.1.15,2013-04-24 20:50:00,
2013-04-24 15:55:00,54.7,26.1,30.00,West,263,2.0,4.0,33,0.00,,,0.00,Wunderground v.1.15,2013-04-24 20:55:00,
2013-04-24 16:00:00,54.7,26.8,30.00,North,360,2.0,4.0,34,0.00,,,0.00,Wunderground v.1.15,2013-04-24 21:00:00,
2013-04-24 16:05:00,55.2,26.6,30.00,North,355,3.0,4.0,33,0.00,,,0.00,Wunderground v.1.15,2013-04-24 21:05:00,
2013-04-24 16:10:00,55.3,27.4,30.00,WNW,294,4.0,4.0,34,0.00,,,0.00,Wunderground v.1.15,2013-04-24 21:10:00,
2013-04-24 16:15:00,55.3,25.1,30.00,NNW,342,4.0,4.0,31,0.00,,,0.00,Wunderground v.1.15,2013-04-24 21:15:00,
2013-04-24 16:20:00,55.0,26.4,30.00,WNW,298,4.0,4.0,33,0.00,,,0.00,Wunderground v.1.15,2013-04-24 21:20:00,
2013-04-24 16:25:00,55.3,25.9,30.00,WSW,253,4.0,4.0,32,0.00,,,0.00,Wunderground v.1.15,2013-04-24 21:25:00,
2013-04-24 16:30:00,55.3,25.1,30.00,NNW,329,4.0,6.0,31,0.00,,,0.00,Wunderground v.1.15,2013-04-24 21:30:00,
2013-04-24 16:35:00,55.2,25.8,30.00,NW,306,4.0,6.0,32,0.00,,,0.00,Wunderground v.1.15,2013-04-24 21:35:00,
2013-04-24 16:40:00,55.1,25.0,30.00,West,281,4.0,4.0,31,0.00,,,0.00,Wunderground v.1.15,2013-04-24 21:40:00,
2013-04-24 16:45:00,55.1,26.5,30.00,NNW,331,4.0,5.0,33,0.00,,,0.00,Wunderground v.1.15,2013-04-24 21:45:00,
2013-04-24 16:50:00,55.0,25.6,29.99,NW,317,4.0,8.0,32,0.00,,,0.00,Wunderground v.1.15,2013-04-24 21:50:00,
2013-04-24 16:55:00,54.9,26.3,29.99,NW,318,5.0,8.0,33,0.00,,,0.00,Wunderground v.1.15,2013-04-24 21:55:00,
2013-04-24 17:00:00,54.9,25.6,29.99,WSW,247,3.0,11.0,32,0.00,,,0.00,Wunderground v.1.15,2013-04-24 22:00:00,
2013-04-24 17:10:00,54.7,26.1,29.99,WNW,284,3.0,3.0,33,0.00,,,0.00,Wunderground v.1.15,2013-04-24 22:10:00,
2013-04-24 17:15:00,54.5,26.0,29.99,WNW,289,4.0,4.0,33,0.00,,,0.00,Wunderground v.1.15,2013-04-24 22:15:00,
2013-04-24 17:20:00,53.9,25.4,29.99,WNW,287,4.0,4.0,33,0.00,,,0.00,Wunderground v.1.15,2013-04-24 22:20:00,
2013-04-24 17:25:00,53.6,25.2,29.99,NW,309,3.0,5.0,33,0.00,,,0.00,Wunderground v.1.15,2013-04-24 22:25:00,
2013-04-24 17:30:00,53.6,25.2,29.99,West,275,4.0,4.0,33,0.00,,,0.00,Wunderground v.1.15,2013-04-24 22:30:00,
2013-04-24 17:35:00,53.3,25.6,29.99,WSW,245,5.0,5.0,34,0.00,,,0.00,Wunderground v.1.15,2013-04-24 22:35:00,
2013-04-24 17:40:00,52.9,26.0,29.99,SW,229,5.0,7.0,35,0.00,,,0.00,Wunderground v.1.15,2013-04-24 22:40:00,
2013-04-24 17:45:00,52.8,25.9,29.99,WNW,298,5.0,7.0,35,0.00,,,0.00,Wunderground v.1.15,2013-04-24 22:45:00,
2013-04-24 17:50:00,52.7,26.5,29.99,WNW,292,4.0,7.0,36,0.00,,,0.00,Wunderground v.1.15,2013-04-24 22:50:00,
2013-04-24 18:00:00,51.8,27.0,29.99,North,360,4.0,8.0,38,0.00,,,0.00,Wunderground v.1.15,2013-04-24 23:00:00,
2013-04-24 18:05:00,51.5,27.3,30.00,West,275,3.0,9.0,39,0.00,,,0.00,Wunderground v.1.15,2013-04-24 23:05:00,
2013-04-24 18:10:00,51.4,27.9,29.99,WNW,292,3.0,3.0,40,0.00,,,0.00,Wunderground v.1.15,2013-04-24 23:10:00,
2013-04-24 18:15:00,51.2,27.7,30.00,West,267,4.0,4.0,40,0.00,,,0.00,Wunderground v.1.15,2013-04-24 23:15:00,
2013-04-24 18:20:00,50.8,27.9,30.00,WSW,251,3.0,3.0,41,0.00,,,0.00,Wunderground v.1.15,2013-04-24 23:20:00,
2013-04-24 18:25:00,50.5,27.7,29.99,West,278,3.0,3.0,41,0.00,,,0.00,Wunderground v.1.15,2013-04-24 23:25:00,
2013-04-24 18:30:00,50.2,28.0,30.00,West,279,4.0,4.0,42,0.00,,,0.00,Wunderground v.1.15,2013-04-24 23:30:00,
2013-04-24 18:35:00,49.8,27.6,29.99,West,265,4.0,4.0,42,0.00,,,0.00,Wunderground v.1.15,2013-04-24 23:35:00,
2013-04-24 18:40:00,49.5,27.9,29.99,WSW,252,3.0,3.0,43,0.00,,,0.00,Wunderground v.1.15,2013-04-24 23:40:00,
2013-04-24 18:45:00,49.3,27.7,30.00,West,271,2.0,3.0,43,0.00,,,0.00,Wunderground v.1.15,2013-04-24 23:45:00,
2013-04-24 18:50:00,49.2,28.2,30.00,West,262,3.0,3.0,44,0.00,,,0.00,Wunderground v.1.15,2013-04-24 23:50:00,
2013-04-24 18:55:00,49.1,27.5,30.00,WSW,239,4.0,4.0,43,0.00,,,0.00,Wunderground v.1.15,2013-04-24 23:55:00,
2013-04-24 19:00:00,48.9,27.4,30.00,SW,234,3.0,5.0,43,0.00,,,0.00,Wunderground v.1.15,2013-04-25 00:00:00,
2013-04-24 19:05:00,48.8,27.8,30.00,WSW,237,3.0,5.0,44,0.00,,,0.00,Wunderground v.1.15,2013-04-25 00:05:00,
2013-04-24 19:15:00,48.7,27.2,30.00,South,175,3.0,3.0,43,0.00,,,0.00,Wunderground v.1.15,2013-04-25 00:15:00,
2013-04-24 19:20:00,48.5,27.6,30.00,WSW,257,3.0,3.0,44,0.00,,,0.00,Wunderground v.1.15,2013-04-25 00:20:00,
2013-04-24 19:25:00,48.3,27.9,30.01,West,272,2.0,3.0,45,0.00,,,0.00,Wunderground v.1.15,2013-04-25 00:25:00,
2013-04-24 19:30:00,48.1,27.7,30.00,WSW,255,2.0,2.0,45,0.00,,,0.00,Wunderground v.1.15,2013-04-25 00:30:00,
2013-04-24 19:35:00,47.9,28.1,30.01,WSW,244,1.0,3.0,46,0.00,,,0.00,Wunderground v.1.15,2013-04-25 00:35:00,
2013-04-24 19:40:00,47.6,27.8,30.01,NW,304,1.0,1.0,46,0.00,,,0.00,Wunderground v.1.15,2013-04-25 00:40:00,
2013-04-24 19:45:00,47.4,28.2,30.01,WSW,250,1.0,1.0,47,0.00,,,0.00,Wunderground v.1.15,2013-04-25 00:45:00,
2013-04-24 19:50:00,47.2,28.0,30.01,SSW,205,1.0,1.0,47,0.00,,,0.00,Wunderground v.1.15,2013-04-25 00:50:00,
2013-04-24 19:55:00,47.1,28.4,30.01,SW,236,1.0,1.0,48,0.00,,,0.00,Wunderground v.1.15,2013-04-25 00:55:00,
2013-04-24 20:00:00,46.9,28.7,30.01,SSW,196,1.0,4.0,49,0.00,,,0.00,Wunderground v.1.15,2013-04-25 01:00:00,
2013-04-24 20:05:00,46.7,28.5,30.00,SSW,213,1.0,4.0,49,0.00,,,0.00,Wunderground v.1.15,2013-04-25 01:05:00,
2013-04-24 20:10:00,46.6,28.4,30.01,SW,229,1.0,1.0,49,0.00,,,0.00,Wunderground v.1.15,2013-04-25 01:10:00,
2013-04-24 20:15:00,46.4,28.3,30.01,SSW,196,1.0,3.0,49,0.00,,,0.00,Wunderground v.1.15,2013-04-25 01:15:00,
2013-04-24 20:20:00,46.3,28.7,30.01,West,275,1.0,1.0,50,0.00,,,0.00,Wunderground v.1.15,2013-04-25 01:20:00,
2013-04-24 20:25:00,46.1,28.5,30.01,WSW,254,1.0,1.0,50,0.00,,,0.00,Wunderground v.1.15,2013-04-25 01:25:00,
2013-04-24 20:30:00,45.9,28.8,30.01,West,270,0.0,0.0,51,0.00,,,0.00,Wunderground v.1.15,2013-04-25 01:30:00,
2013-04-24 20:35:00,45.7,28.6,30.01,SSW,212,0.0,0.0,51,0.00,,,0.00,Wunderground v.1.15,2013-04-25 01:35:00,
2013-04-24 20:40:00,45.6,28.5,30.01,SSW,202,0.0,0.0,51,0.00,,,0.00,Wunderground v.1.15,2013-04-25 01:40:00,
2013-04-24 20:45:00,45.5,28.4,30.01,SSW,201,0.0,0.0,51,0.00,,,0.00,Wunderground v.1.15,2013-04-25 01:45:00,
2013-04-24 20:50:00,45.4,28.3,30.02,WSW,238,1.0,1.0,51,0.00,,,0.00,Wunderground v.1.15,2013-04-25 01:50:00,
2013-04-24 20:55:00,45.2,28.6,30.01,SW,236,0.0,1.0,52,0.00,,,0.00,Wunderground v.1.15,2013-04-25 01:55:00,
2013-04-24 21:00:00,45.0,28.4,30.01,SW,223,0.0,0.0,52,0.00,,,0.00,Wunderground v.1.15,2013-04-25 02:00:00,
2013-04-24 21:10:00,44.9,28.8,30.01,WSW,249,1.0,1.0,53,0.00,,,0.00,Wunderground v.1.15,2013-04-25 02:10:00,
2013-04-24 21:15:00,44.8,28.2,30.01,SSW,205,1.0,4.0,52,0.00,,,0.00,Wunderground v.1.15,2013-04-25 02:15:00,
2013-04-24 21:20:00,44.7,28.6,30.01,SSW,202,1.0,2.0,53,0.00,,,0.00,Wunderground v.1.15,2013-04-25 02:20:00,
2013-04-24 21:25:00,44.6,28.5,30.01,SSW,201,1.0,2.0,53,0.00,,,0.00,Wunderground v.1.15,2013-04-25 02:25:00,
2013-04-24 21:30:00,44.4,28.8,30.01,South,190,1.0,3.0,54,0.00,,,0.00,Wunderground v.1.15,2013-04-25 02:30:00,
2013-04-24 21:35:00,44.2,29.0,30.01,SW,232,1.0,3.0,55,0.00,,,0.00,Wunderground v.1.15,2013-04-25 02:35:00,
2013-04-24 21:40:00,44.1,28.9,30.01,SW,230,1.0,1.0,55,0.00,,,0.00,Wunderground v.1.15,2013-04-25 02:40:00,
2013-04-24 21:45:00,44.0,28.9,30.01,SSW,200,1.0,1.0,55,0.00,,,0.00,Wunderground v.1.15,2013-04-25 02:45:00,
2013-04-24 21:50:00,44.0,29.3,30.01,SSW,210,2.0,2.0,56,0.00,,,0.00,Wunderground v.1.15,2013-04-25 02:50:00,
2013-04-24 21:55:00,43.9,29.2,30.00,SSW,212,2.0,6.0,56,0.00,,,0.00,Wunderground v.1.15,2013-04-25 02:55:00,
2013-04-24 22:00:00,43.8,29.5,30.00,South,176,2.0,2.0,57,0.00,,,0.00,Wunderground v.1.15,2013-04-25 03:00:00,
2013-04-24 22:05:00,43.7,29.5,30.00,SSW,213,2.0,2.0,57,0.00,,,0.00,Wunderground v.1.15,2013-04-25 03:05:00,
2013-04-24 22:09:00,43.7,29.5,30.00,South,182,2.0,2.0,57,0.00,,,0.00,Wunderground v.1.15,2013-04-25 03:09:00,
2013-04-24 22:15:00,43.7,29.5,30.00,South,185,4.0,4.0,57,0.00,,,0.00,Wunderground v.1.15,2013-04-25 03:15:00,
2013-04-24 22:20:00,43.8,29.5,30.00,SW,217,4.0,9.0,57,0.00,,,0.00,Wunderground v.1.15,2013-04-25 03:20:00,
2013-04-24 22:25:00,43.9,29.6,30.00,South,175,4.0,9.0,57,0.00,,,0.00,Wunderground v.1.15,2013-04-25 03:25:00,
2013-04-24 22:30:00,43.8,30.0,30.00,SSW,211,4.0,4.0,58,0.00,,,0.00,Wunderground v.1.15,2013-04-25 03:30:00,
2013-04-24 22:35:00,43.7,29.9,30.00,SSW,207,5.0,5.0,58,0.00,,,0.00,Wunderground v.1.15,2013-04-25 03:35:00,
2013-04-24 22:40:00,43.7,30.3,30.00,South,190,5.0,6.0,59,0.00,,,0.00,Wunderground v.1.15,2013-04-25 03:40:00,
2013-04-24 22:45:00,43.6,30.2,30.00,SSW,212,4.0,7.0,59,0.00,,,0.00,Wunderground v.1.15,2013-04-25 03:45:00,
2013-04-24 22:50:00,43.7,30.3,30.00,WNW,300,4.0,4.0,59,0.00,,,0.00,Wunderground v.1.15,2013-04-25 03:50:00,
2013-04-24 22:55:00,43.7,30.3,30.01,South,187,3.0,4.0,59,0.00,,,0.00,Wunderground v.1.15,2013-04-25 03:55:00,
2013-04-24 23:00:00,43.7,30.3,30.01,WNW,294,3.0,3.0,59,0.00,,,0.00,Wunderground v.1.15,2013-04-25 04:00:00,
2013-04-24 23:05:00,43.9,30.1,30.01,West,274,4.0,4.0,58,0.00,,,0.00,Wunderground v.1.15,2013-04-25 04:05:00,
2013-04-24 23:10:00,44.2,29.9,30.01,WSW,246,4.0,4.0,57,0.00,,,0.00,Wunderground v.1.15,2013-04-25 04:10:00,
2013-04-24 23:20:00,44.5,29.8,30.00,NW,305,2.0,2.0,56,0.00,,,0.00,Wunderground v.1.15,2013-04-25 04:20:00,
2013-04-24 23:25:00,44.5,29.8,30.00,SSW,197,1.0,2.0,56,0.00,,,0.00,Wunderground v.1.15,2013-04-25 04:25:00,
2013-04-24 23:29:00,44.5,29.8,30.00,SW,232,2.0,6.0,56,0.00,,,0.00,Wunderground v.1.15,2013-04-25 04:29:00,
2013-04-24 23:35:00,44.5,29.3,29.99,WNW,289,2.0,6.0,55,0.00,,,0.00,Wunderground v.1.15,2013-04-25 04:35:00,
2013-04-24 23:40:00,44.6,29.9,30.00,West,266,2.0,2.0,56,0.00,,,0.00,Wunderground v.1.15,2013-04-25 04:40:00,
2013-04-24 23:45:00,44.7,29.5,29.99,West,260,2.0,2.0,55,0.00,,,0.00,Wunderground v.1.15,2013-04-25 04:45:00,
2013-04-24 23:50:00,44.7,29.5,30.00,South,186,2.0,4.0,55,0.00,,,0.00,Wunderground v.1.15,2013-04-25 04:50:00,
2013-04-24 23:55:00,44.8,30.0,30.00,WSW,251,2.0,4.0,56,0.00,,,0.00,Wunderground v.1.15,2013-04-25 04:55:00,